Time,TemperatureF,DewpointF,PressureIn,WindDirection,WindDirectionDegrees,WindSpeedMPH,WindSpeedGustMPH,Humidity,HourlyPrecipIn,Conditions,Clouds,dailyrainin,SoftwareType,DateUTC
2013-06-07 00:02:00,55.0,41.0,30.07,SSW,202,0.0,1.0,60,0.00,,,0.00,,2013-06-07 07:02:00,
2013-06-07 00:11:00,55.0,41.0,30.07,SSW,202,0.0,1.0,60,0.00,,,0.00,,2013-06-07 07:11:00,
2013-06-07 00:22:00,55.0,41.0,30.07,SE,135,0.0,1.0,60,0.00,,,0.00,,2013-06-07 07:22:00,
2013-06-07 00:32:00,55.0,42.0,30.06,South,180,0.0,1.0,62,0.00,,,0.00,,2013-06-07 07:32:00,
2013-06-07 00:42:00,55.0,42.0,30.06,South,180,0.0,1.0,62,0.00,,,0.00,,2013-06-07 07:42:00,
2013-06-07 00:52:00,55.0,43.0,30.06,South,180,1.0,1.0,63,0.00,,,0.00,,2013-06-07 07:52:00,
2013-06-07 01:02:00,55.0,43.0,30.05,SW,225,0.0,1.0,63,0.00,,,0.00,,2013-06-07 08:02:00,
2013-06-07 01:11:00,55.0,43.0,30.05,SW,225,0.0,1.0,63,0.00,,,0.00,,2013-06-07 08:11:00,
2013-06-07 01:22:00,55.0,41.0,30.05,North,-999,0.0,0.0,58,0.00,,,0.00,,2013-06-07 08:22:00,
2013-06-07 01:32:00,55.0,43.0,30.05,North,-999,0.0,0.0,63,0.00,,,0.00,,2013-06-07 08:32:00,
2013-06-07 01:42:00,55.0,43.0,30.05,North,-999,0.0,0.0,63,0.00,,,0.00,,2013-06-07 08:42:00,
2013-06-07 01:52:00,54.0,43.0,30.05,North,-999,0.0,0.0,67,0.00,,,0.00,,2013-06-07 08:52:00,
2013-06-07 02:02:00,53.0,45.0,30.06,North,-999,0.0,0.0,73,0.00,,,0.00,,2013-06-07 09:02:00,
2013-06-07 02:11:00,53.0,45.0,30.06,North,-999,0.0,0.0,73,0.00,,,0.00,,2013-06-07 09:11:00,
2013-06-07 02:22:00,53.0,47.0,30.06,North,-999,0.0,0.0,79,0.00,,,0.00,,2013-06-07 09:22:00,
2013-06-07 02:32:00,53.0,47.0,30.05,North,-999,0.0,0.0,80,0.00,,,0.00,,2013-06-07 09:32:00,
2013-06-07 02:43:00,53.0,47.0,30.05,North,-999,0.0,0.0,80,0.00,,,0.00,,2013-06-07 09:43:00,
2013-06-07 02:53:00,53.0,47.0,30.06,North,-999,0.0,0.0,81,0.00,,,0.00,,2013-06-07 09:53:00,
2013-06-07 03:02:00,52.0,47.0,30.06,North,-999,0.0,0.0,82,0.00,,,0.00,,2013-06-07 10:02:00,
2013-06-07 03:12:00,52.0,47.0,30.06,North,-999,0.0,0.0,82,0.00,,,0.00,,2013-06-07 10:12:00,
2013-06-07 03:22:00,52.0,47.0,30.06,North,-999,0.0,0.0,84,0.00,,,0.00,,2013-06-07 10:22:00,
2013-06-07 03:32:00,53.0,47.0,30.06,South,180,0.0,1.0,81,0.00,,,0.00,,2013-06-07 10:32:00,
2013-06-07 03:42:00,53.0,47.0,30.06,South,180,0.0,1.0,81,0.00,,,0.00,,2013-06-07 10:42:00,
2013-06-07 03:52:00,54.0,48.0,30.06,North,-999,0.0,0.0,80,0.00,,,0.00,,2013-06-07 10:52:00,
2013-06-07 04:02:00,54.0,48.0,30.06,North,-999,0.0,0.0,81,0.00,,,0.00,,2013-06-07 11:02:00,
2013-06-07 04:11:00,54.0,48.0,30.06,North,-999,0.0,0.0,81,0.00,,,0.00,,2013-06-07 11:11:00,
2013-06-07 04:22:00,54.0,48.0,30.07,WSW,247,0.0,1.0,81,0.00,,,0.00,,2013-06-07 11:22:00,
2013-06-07 04:32:00,54.0,46.0,30.07,North,-999,0.0,0.0,75,0.00,,,0.00,,2013-06-07 11:32:00,
2013-06-07 04:42:00,54.0,46.0,30.07,North,-999,0.0,0.0,75,0.00,,,0.00,,2013-06-07 11:42:00,
2013-06-07 04:52:00,54.0,45.0,30.08,North,-999,0.0,0.0,72,0.00,,,0.00,,2013-06-07 11:52:00,
2013-06-07 05:02:00,54.0,43.0,30.07,North,-999,0.0,0.0,67,0.00,,,0.00,,2013-06-07 12:02:00,
2013-06-07 05:12:00,54.0,43.0,30.07,North,-999,0.0,0.0,67,0.00,,,0.00,,2013-06-07 12:12:00,
2013-06-07 05:22:00,54.0,43.0,30.07,North,-999,0.0,0.0,66,0.00,,,0.00,,2013-06-07 12:22:00,
2013-06-07 05:32:00,53.0,44.0,30.07,North,-999,0.0,0.0,72,0.00,,,0.00,,2013-06-07 12:32:00,
2013-06-07 05:42:00,53.0,44.0,30.07,North,-999,0.0,0.0,72,0.00,,,0.00,,2013-06-07 12:42:00,
2013-06-07 05:52:00,53.0,45.0,30.07,North,-999,0.0,0.0,74,0.00,,,0.00,,2013-06-07 12:52:00,
2013-06-07 06:02:00,53.0,45.0,30.07,North,-999,0.0,0.0,73,0.00,,,0.00,,2013-06-07 13:02:00,
2013-06-07 06:11:00,53.0,45.0,30.07,North,-999,0.0,0.0,73,0.00,,,0.00,,2013-06-07 13:11:00,
2013-06-07 06:22:00,53.0,45.0,30.08,North,-999,0.0,0.0,74,0.00,,,0.00,,2013-06-07 13:22:00,
2013-06-07 06:32:00,54.0,46.0,30.07,North,-999,0.0,0.0,75,0.00,,,0.00,,2013-06-07 13:32:00,
2013-06-07 06:42:00,54.0,46.0,30.07,North,-999,0.0,0.0,75,0.00,,,0.00,,2013-06-07 13:42:00,
2013-06-07 06:52:00,54.0,47.0,30.08,WNW,292,0.0,2.0,76,0.00,,,0.00,,2013-06-07 13:52:00,
2013-06-07 07:02:00,55.0,48.0,30.07,SW,225,0.0,1.0,78,0.00,,,0.00,,2013-06-07 14:02:00,
2013-06-07 07:11:00,55.0,48.0,30.07,SW,225,0.0,1.0,78,0.00,,,0.00,,2013-06-07 14:11:00,
2013-06-07 07:22:00,55.0,48.0,30.08,NE,45,0.0,1.0,78,0.00,,,0.00,,2013-06-07 14:22:00,
2013-06-07 07:32:00,56.0,49.0,30.08,NE,45,0.0,1.0,77,0.00,,,0.00,,2013-06-07 14:32:00,
2013-06-07 07:42:00,57.0,49.0,30.08,North,-999,0.0,0.0,74,0.00,,,0.00,,2013-06-07 14:42:00,
2013-06-07 07:52:00,57.0,49.0,30.08,North,-999,0.0,0.0,74,0.00,,,0.00,,2013-06-07 14:52:00,
2013-06-07 08:02:00,57.0,50.0,30.08,NNE,22,0.0,1.0,78,0.00,,,0.00,,2013-06-07 15:02:00,
2013-06-07 08:11:00,57.0,50.0,30.08,NNE,22,0.0,1.0,78,0.00,,,0.00,,2013-06-07 15:11:00,
2013-06-07 08:22:00,57.0,50.0,30.08,ENE,67,0.0,1.0,76,0.00,,,0.00,,2013-06-07 15:22:00,
2013-06-07 08:33:00,57.0,48.0,30.09,West,270,0.0,2.0,72,0.00,,,0.00,,2013-06-07 15:33:00,
2013-06-07 08:43:00,57.0,48.0,30.09,West,270,0.0,2.0,72,0.00,,,0.00,,2013-06-07 15:43:00,
2013-06-07 08:53:00,57.0,48.0,30.09,West,270,0.0,2.0,72,0.00,,,0.00,,2013-06-07 15:53:00,
2013-06-07 09:03:00,59.0,50.0,30.09,ENE,67,0.0,2.0,71,0.00,,,0.00,,2013-06-07 16:03:00,
2013-06-07 09:12:00,59.0,50.0,30.09,ENE,67,0.0,2.0,71,0.00,,,0.00,,2013-06-07 16:12:00,
2013-06-07 09:22:00,59.0,49.0,30.08,SW,225,1.0,5.0,69,0.00,,,0.00,,2013-06-07 16:22:00,
2013-06-07 09:32:00,61.0,51.0,30.08,ENE,67,1.0,5.0,70,0.00,,,0.00,,2013-06-07 16:32:00,
2013-06-07 09:42:00,61.0,51.0,30.08,ENE,67,1.0,5.0,70,0.00,,,0.00,,2013-06-07 16:42:00,
2013-06-07 09:52:00,60.0,50.0,30.08,West,270,1.0,5.0,70,0.00,,,0.00,,2013-06-07 16:52:00,
2013-06-07 10:02:00,60.0,49.0,30.08,NW,315,1.0,6.0,67,0.00,,,0.00,,2013-06-07 17:02:00,
2013-06-07 10:22:00,60.0,49.0,30.08,NE,45,1.0,4.0,67,0.00,,,0.00,,2013-06-07 17:22:00,
2013-06-07 10:32:00,60.0,43.0,30.09,WSW,247,2.0,6.0,54,0.00,,,0.00,,2013-06-07 17:32:00,
2013-06-07 10:42:00,60.0,43.0,30.09,WSW,247,2.0,6.0,54,0.00,,,0.00,,2013-06-07 17:42:00,
2013-06-07 10:52:00,60.0,44.0,30.09,West,270,1.0,2.0,55,0.00,,,0.00,,2013-06-07 17:52:00,
2013-06-07 11:03:00,60.0,43.0,30.11,West,270,1.0,6.0,54,0.00,,,0.00,,2013-06-07 18:03:00,
2013-06-07 11:12:00,60.0,43.0,30.11,West,270,1.0,6.0,54,0.00,,,0.00,,2013-06-07 18:12:00,
2013-06-07 11:22:00,60.0,43.0,30.11,West,270,1.0,5.0,53,0.00,,,0.00,,2013-06-07 18:22:00,
2013-06-07 11:34:00,61.0,43.0,30.11,WNW,292,2.0,5.0,51,0.00,,,0.00,,2013-06-07 18:34:00,
2013-06-07 11:42:00,61.0,43.0,30.11,WNW,292,2.0,5.0,51,0.00,,,0.00,,2013-06-07 18:42:00,
2013-06-07 12:03:00,62.0,44.0,30.12,NNE,22,2.0,6.0,51,0.00,,,0.00,,2013-06-07 19:03:00,
2013-06-07 12:12:00,62.0,44.0,30.12,NNE,22,2.0,6.0,51,0.00,,,0.00,,2013-06-07 19:12:00,
2013-06-07 12:23:00,62.0,46.0,30.11,WNW,292,2.0,9.0,55,0.00,,,0.00,,2013-06-07 19:23:00,
2013-06-07 12:33:00,61.0,45.0,30.12,NE,45,1.0,5.0,56,0.00,,,0.00,,2013-06-07 19:33:00,
2013-06-07 12:42:00,61.0,45.0,30.12,NE,45,1.0,5.0,56,0.00,,,0.00,,2013-06-07 19:42:00,
2013-06-07 12:53:00,61.0,45.0,30.12,West,270,1.0,3.0,56,0.00,,,0.00,,2013-06-07 19:53:00,
2013-06-07 13:02:00,62.0,46.0,30.12,SW,225,2.0,6.0,56,0.00,,,0.00,,2013-06-07 20:02:00,
2013-06-07 13:12:00,62.0,46.0,30.12,SW,225,2.0,6.0,56,0.00,,,0.00,,2013-06-07 20:12:00,
2013-06-07 13:22:00,62.0,47.0,30.12,WSW,247,1.0,4.0,57,0.00,,,0.00,,2013-06-07 20:22:00,
2013-06-07 13:35:00,63.0,48.0,30.13,WSW,247,2.0,6.0,59,0.00,,,0.00,,2013-06-07 20:35:00,
2013-06-07 13:53:00,62.0,49.0,30.13,East,90,2.0,5.0,62,0.00,,,0.00,,2013-06-07 20:53:00,
2013-06-07 14:04:00,62.0,49.0,30.13,WNW,292,0.0,2.0,62,0.00,,,0.00,,2013-06-07 21:04:00,
2013-06-07 14:12:00,62.0,49.0,30.13,WNW,292,0.0,2.0,62,0.00,,,0.00,,2013-06-07 21:12:00,
2013-06-07 14:23:00,62.0,50.0,30.13,ENE,67,1.0,4.0,64,0.00,,,0.00,,2013-06-07 21:23:00,
2013-06-07 14:35:00,62.0,49.0,30.13,NE,45,1.0,6.0,63,0.00,,,0.00,,2013-06-07 21:35:00,
2013-06-07 14:43:00,62.0,49.0,30.13,NE,45,1.0,6.0,63,0.00,,,0.00,,2013-06-07 21:43:00,
2013-06-07 14:54:00,62.0,49.0,30.13,NE,45,2.0,7.0,63,0.00,,,0.00,,2013-06-07 21:54:00,
2013-06-07 15:06:00,62.0,49.0,30.13,ENE,67,1.0,3.0,63,0.00,,,0.00,,2013-06-07 22:06:00,
2013-06-07 15:13:00,62.0,49.0,30.13,ENE,67,1.0,3.0,63,0.00,,,0.00,,2013-06-07 22:13:00,
2013-06-07 15:23:00,62.0,50.0,30.13,ENE,67,1.0,3.0,64,0.00,,,0.00,,2013-06-07 22:23:00,
2013-06-07 15:33:00,63.0,49.0,30.13,NNE,22,0.0,3.0,61,0.00,,,0.00,,2013-06-07 22:33:00,
2013-06-07 15:43:00,63.0,49.0,30.13,NNE,22,0.0,3.0,61,0.00,,,0.00,,2013-06-07 22:43:00,
2013-06-07 15:53:00,63.0,51.0,30.13,ENE,67,0.0,2.0,64,0.00,,,0.00,,2013-06-07 22:53:00,
2013-06-07 16:05:00,63.0,51.0,30.14,NE,45,0.0,2.0,65,0.00,,,0.00,,2013-06-07 23:05:00,
2013-06-07 16:12:00,63.0,51.0,30.14,NE,45,0.0,2.0,65,0.00,,,0.00,,2013-06-07 23:12:00,
2013-06-07 16:23:00,63.0,49.0,30.14,West,270,0.0,2.0,61,0.00,,,0.00,,2013-06-07 23:23:00,
2013-06-07 16:33:00,64.0,52.0,30.14,North,0,0.0,1.0,65,0.00,,,0.00,,2013-06-07 23:33:00,
2013-06-07 16:42:00,64.0,52.0,30.14,North,0,0.0,1.0,65,0.00,,,0.00,,2013-06-07 23:42:00,
2013-06-07 16:53:00,64.0,51.0,30.14,ENE,67,0.0,1.0,62,0.00,,,0.00,,2013-06-07 23:53:00,
2013-06-07 17:04:00,64.0,52.0,30.14,North,-999,0.0,0.0,64,0.00,,,0.00,,2013-06-08 00:04:00,
2013-06-07 17:12:00,64.0,52.0,30.14,North,-999,0.0,0.0,65,0.00,,,0.00,,2013-06-08 00:12:00,
2013-06-07 17:33:00,64.0,51.0,30.14,NE,45,0.0,2.0,62,0.00,,,0.00,,2013-06-08 00:33:00,
2013-06-07 17:43:00,64.0,51.0,30.14,NE,45,0.0,2.0,62,0.00,,,0.00,,2013-06-08 00:43:00,
2013-06-07 17:52:00,63.0,51.0,30.15,ENE,67,0.0,1.0,66,0.00,,,0.00,,2013-06-08 00:52:00,
2013-06-07 18:03:00,64.0,51.0,30.14,WSW,247,0.0,2.0,62,0.00,,,0.00,,2013-06-08 01:03:00,
2013-06-07 18:12:00,64.0,51.0,30.14,WSW,247,0.0,2.0,62,0.00,,,0.00,,2013-06-08 01:12:00,
2013-06-07 18:34:00,65.0,53.0,30.13,SSE,157,0.0,1.0,64,0.00,,,0.00,,2013-06-08 01:34:00,
2013-06-07 18:42:00,65.0,53.0,30.13,SSE,157,0.0,1.0,64,0.00,,,0.00,,2013-06-08 01:42:00,
2013-06-07 18:53:00,64.0,52.0,30.13,WSW,247,0.0,3.0,65,0.00,,,0.00,,2013-06-08 01:53:00,
2013-06-07 19:05:00,64.0,53.0,30.14,WNW,292,0.0,2.0,68,0.00,,,0.00,,2013-06-08 02:05:00,
2013-06-07 19:12:00,64.0,53.0,30.14,WNW,292,0.0,2.0,68,0.00,,,0.00,,2013-06-08 02:12:00,
2013-06-07 19:33:00,63.0,53.0,30.14,SW,225,0.0,1.0,69,0.00,,,0.00,,2013-06-08 02:33:00,
2013-06-07 19:43:00,63.0,54.0,30.14,North,-999,0.0,0.0,72,0.00,,,0.00,,2013-06-08 02:43:00,
2013-06-07 19:53:00,63.0,54.0,30.14,North,-999,0.0,0.0,72,0.00,,,0.00,,2013-06-08 02:53:00,
2013-06-07 20:05:00,62.0,53.0,30.14,WSW,247,1.0,4.0,73,0.00,,,0.00,,2013-06-08 03:05:00,
2013-06-07 20:23:00,61.0,52.0,30.13,SW,225,0.0,1.0,73,0.00,,,0.00,,2013-06-08 03:23:00,
2013-06-07 20:33:00,60.0,53.0,30.13,SW,225,0.0,2.0,77,0.00,,,0.00,,2013-06-08 03:33:00,
2013-06-07 20:44:00,60.0,53.0,30.13,SW,225,0.0,2.0,77,0.00,,,0.00,,2013-06-08 03:44:00,
2013-06-07 20:54:00,59.0,53.0,30.13,WSW,247,0.0,4.0,80,0.00,,,0.00,,2013-06-08 03:54:00,
2013-06-07 21:03:00,57.0,52.0,30.13,North,-999,0.0,0.0,82,0.00,,,0.00,,2013-06-08 04:03:00,
2013-06-07 21:12:00,57.0,52.0,30.13,North,-999,0.0,0.0,82,0.00,,,0.00,,2013-06-08 04:12:00,
2013-06-07 21:22:00,56.0,51.0,30.13,North,-999,0.0,0.0,84,0.00,,,0.00,,2013-06-08 04:22:00,
2013-06-07 21:33:00,55.0,51.0,30.14,West,270,0.0,4.0,87,0.00,,,0.00,,2013-06-08 04:33:00,
2013-06-07 21:42:00,55.0,51.0,30.14,West,270,0.0,4.0,87,0.00,,,0.00,,2013-06-08 04:42:00,
2013-06-07 21:53:00,55.0,51.0,30.14,East,90,0.0,1.0,87,0.00,,,0.00,,2013-06-08 04:53:00,
2013-06-07 22:02:00,54.0,51.0,30.16,SW,225,0.0,2.0,89,0.00,,,0.00,,2013-06-08 05:02:00,
2013-06-07 22:12:00,54.0,51.0,30.16,SW,225,0.0,2.0,89,0.00,,,0.00,,2013-06-08 05:12:00,
2013-06-07 22:22:00,54.0,51.0,30.16,ENE,67,1.0,4.0,88,0.00,,,0.00,,2013-06-08 05:22:00,
2013-06-07 22:32:00,53.0,49.0,30.17,SSE,157,0.0,2.0,87,0.00,,,0.00,,2013-06-08 05:32:00,
2013-06-07 22:42:00,53.0,49.0,30.17,SSE,157,0.0,2.0,87,0.00,,,0.00,,2013-06-08 05:42:00,
2013-06-07 22:52:00,53.0,50.0,30.17,SW,225,0.0,2.0,88,0.00,,,0.00,,2013-06-08 05:52:00,
2013-06-07 23:02:00,52.0,49.0,30.16,North,-999,0.0,0.0,89,0.00,,,0.00,,2013-06-08 06:02:00,
2013-06-07 23:12:00,52.0,49.0,30.16,North,-999,0.0,0.0,89,0.00,,,0.00,,2013-06-08 06:12:00,
2013-06-07 23:22:00,51.0,48.0,30.17,North,-999,0.0,0.0,89,0.00,,,0.00,,2013-06-08 06:22:00,
2013-06-07 23:32:00,51.0,47.0,30.18,East,90,0.0,2.0,87,0.00,,,0.00,,2013-06-08 06:32:00,
2013-06-07 23:42:00,51.0,47.0,30.18,East,90,0.0,2.0,87,0.00,,,0.00,,2013-06-08 06:42:00,
2013-06-07 23:52:00,51.0,47.0,30.18,WSW,247,0.0,1.0,87,0.00,,,0.00,,2013-06-08 06:52:00,